Location: ????????
(54.9045°N, 39.1041°E)
Time: 11:40:43
(UTC+00:00)

SAR-Lupe-4 - Pass Details

Date: 14 April 2024
Orbit: 476 x 482 km, 98.1° (Epoch: 02 April)

Event Time Altitude Azimuth Distance (km) Brightness Sun altitude
Rises 00:30:41 0° 12° (NNE) 2,547 8.2 -14.7°
Reaches altitude 10° 00:32:46 10° 9° (N) 1,663 7.0 -14.5°
Maximum altitude 00:36:17 59° 290° (WNW) 559 3.7 -14.1°
Enters shadow 00:38:08 25° 218° (SW) 998 4.5 -13.9°
